DW9584 Weather Reports


time (UTC)temp
F
wind
direction
speed
knots
gust
knots
rain 1hr
in
rain 24hr
in
rain mn
in
humidity
%
barometer
mb
20260509173030 63 198 0.0 1.7 0.00 0.00 0.00 66 1011.0
20260509171534 62 294 0.9 4.3 0.00 0.00 0.00 67 1011.0
20260509170026 63 203 0.9 4.3 0.00 0.00 0.00 65 1011.1
20260509164523 64 356 0.0 2.6 0.00 0.00 0.00 65 1011.2
20260509163048 63 198 0.0 4.3 0.00 0.00 0.00 64 1011.2
20260509161527 64 174 0.9 6.1 0.00 0.00 0.00 65 1011.3
20260509160018 64 304 0.0 3.5 0.00 0.00 0.00 66 1011.5
20260509154516 63 293 0.0 1.7 0.00 0.00 0.00 67 1011.7
20260509153028 63 226 0.0 1.7 0.00 0.00 0.00 68 1011.9
20260509151528 62 350 0.0 4.3 0.00 0.00 0.00 69 1012.1
20260509150028 62 217 0.0 2.6 0.00 0.00 0.00 68 1012.1
20260509144526 62 167 0.0 3.5 0.00 0.00 0.00 68 1012.0
20260509143033 63 280 0.9 6.1 0.00 0.00 0.00 68 1011.9
20260509141526 63 226 0.9 3.5 0.00 0.00 0.00 70 1011.9
20260509140021 62 193 0.9 4.3 0.00 0.00 0.00 73 1011.7
20260509134528 61 152 0.0 1.7 0.00 0.00 0.00 75 1011.8
20260509133026 61 300 0.0 2.6 0.00 0.00 0.00 75 1011.7
20260509131526 60 215 0.0 2.6 0.00 0.00 0.00 77 1011.8
20260509130026 60 354 0.0 1.7 0.00 0.00 0.00 78 1012.1
20260509124535 59 227 0.0 3.5 0.00 0.00 0.00 79 1012.2
20260509123027 59 174 0.0 2.6 0.00 0.00 0.00 80 1012.1
20260509121535 58 72 0.0 2.6 0.00 0.00 0.00 80 1012.1
20260509120003 57 49 0.0 2.6 0.00 0.00 0.00 81 1012.1
20260509114542 57 224 0.0 1.7 0.00 0.00 0.00 81 1012.1
20260509113019 56 67 0.0 1.7 0.00 0.00 0.00 82 1012.0
20260509111516 56 152 0.0 1.7 0.00 0.00 0.00 82 1012.0
20260509110013 56 135 0.0 2.6 0.00 0.00 0.00 82 1012.2
20260509104510 55 140 0.0 0.9 0.00 0.00 0.00 82 1011.9
20260509103008 54 131 0.0 0.9 0.00 0.00 0.00 82 1011.9
20260509101507 53 134 0.0 0.0 0.00 0.00 0.00 81 1011.7
20260509100005 53 134 0.0 0.9 0.00 0.00 0.00 81 1011.8
20260509094525 53 140 0.0 0.0 0.00 0.00 0.00 80 1011.7
20260509093022 53 140 0.0 0.9 0.00 0.00 0.00 79 1011.7
20260509091520 53 140 0.0 0.0 0.00 0.00 0.00 78 1011.7
20260509090041 54 140 0.0 0.0 0.00 0.00 0.00 76 1011.8
20260509084520 54 142 0.0 0.9 0.00 0.00 0.00 76 1011.9
20260509083021 54 114 0.0 0.9 0.00 0.00 0.00 76 1011.9
20260509081506 54 192 0.0 1.7 0.00 0.00 0.00 75 1012.0
20260509080025 53 97 0.0 0.9 0.00 0.00 0.00 75 1012.0
20260509074533 53 162 0.0 1.7 0.00 0.00 0.00 75 1012.2
20260509073022 53 143 0.0 0.0 0.00 0.00 0.00 74 1012.2
20260509071522 54 143 0.0 1.7 0.00 0.00 0.00 72 1012.3
20260509070018 54 191 0.0 1.7 0.00 0.00 0.00 70 1012.3
20260509064516 55 179 0.0 0.0 0.00 0.00 0.00 69 1012.4
20260509063011 55 179 0.0 1.7 0.00 0.00 0.00 68 1012.7
20260509061528 56 179 0.0 0.0 0.00 0.00 0.00 67 1012.9
20260509060026 57 179 0.0 1.7 0.00 0.00 0.00 64 1012.8
20260509054524 58 179 0.0 1.7 0.00 0.00 0.00 62 1012.9
20260509053035 58 165 0.0 1.7 0.00 0.00 0.00 60 1013.0
20260509051524 58 212 0.0 3.5 0.00 0.00 0.00 61 1013.2
20260509050041 58 130 0.0 3.5 0.00 0.00 0.00 61 1013.3
20260509044516 58 179 0.0 1.7 0.00 0.00 0.00 61 1013.3
20260509043026 59 155 0.0 1.7 0.00 0.00 0.00 57 1013.3
20260509041528 59 235 0.0 2.6 0.00 0.00 0.00 57 1013.1
20260509040030 59 187 0.0 0.0 0.00 0.00 0.00 56 1013.2
20260509034528 60 184 0.0 1.7 0.00 0.00 0.00 55 1013.2
20260509033034 61 175 0.0 1.7 0.00 0.00 0.00 53 1013.3
20260509031531 61 181 0.0 1.7 0.00 0.00 0.00 52 1013.3
20260509030022 61 214 0.0 1.7 0.00 0.00 0.00 54 1013.1
20260509024518 61 196 0.0 2.6 0.00 0.00 0.00 52 1012.8
20260509023016 62 229 0.9 3.5 0.00 0.00 0.00 50 1013.1
20260509021516 62 293 0.0 2.6 0.00 0.00 0.00 51 1013.1
20260509020010 62 188 0.0 2.6 0.00 0.00 0.00 50 1013.0
20260509014527 62 224 0.0 1.7 0.00 0.00 0.00 49 1013.0
20260509013028 62 312 0.9 1.7 0.00 0.00 0.00 48 1012.8
20260509011525 62 234 0.0 1.7 0.00 0.00 0.00 48 1012.6
20260509010030 62 226 0.0 1.7 0.00 0.00 0.00 49 1012.2
20260509004521 62 251 0.0 1.7 0.00 0.00 0.00 47 1012.0
20260509003018 62 240 0.0 1.7 0.00 0.00 0.00 46 1011.7
20260509001508 62 245 0.0 0.0 0.00 0.00 0.00 47 1011.6
20260509000007 63 245 0.0 1.7 0.00 0.00 0.00 45 1011.5
20260508234510 64 183 0.0 0.9 0.00 0.00 0.00 42 1011.4
20260508233012 64 240 0.0 3.5 0.00 0.00 0.00 42 1011.3
20260508231508 64 300 0.0 2.6 0.00 0.00 0.00 40 1011.1
20260508230006 65 220 0.0 2.6 0.00 0.00 0.00 39 1011.0
20260508224529 65 174 0.0 1.7 0.00 0.00 0.00 37 1011.0
20260508223013 65 181 0.0 2.6 0.00 0.00 0.00 37 1010.9
20260508221515 65 235 0.9 5.2 0.00 0.00 0.00 36 1011.0
20260508220012 66 237 0.0 4.3 0.00 0.00 0.00 35 1010.9
20260508214522 66 297 0.9 4.3 0.00 0.00 0.00 35 1010.8
20260508213015 68 351 1.7 4.3 0.00 0.00 0.00 34 1010.8
20260508211516 67 321 0.0 4.3 0.00 0.00 0.00 34 1010.9
20260508210005 67 332 1.7 8.7 0.00 0.00 0.00 33 1011.0
20260508204519 68 301 3.5 8.7 0.00 0.00 0.00 34 1011.1
20260508203016 66 305 1.7 5.2 0.00 0.00 0.00 36 1011.2
20260508201518 66 34 0.9 7.0 0.00 0.00 0.00 37 1011.3
20260508200030 67 147 1.7 6.1 0.00 0.00 0.00 36 1011.3
20260508194516 65 266 0.9 2.6 0.00 0.00 0.00 39 1011.6
20260508193016 66 124 0.9 8.7 0.00 0.00 0.00 36 1011.6
20260508191512 65 188 0.0 4.3 0.00 0.00 0.00 35 1011.7
20260508190022 67 270 1.7 6.1 0.00 0.00 0.00 36 1011.5
20260508184526 68 263 1.7 9.6 0.00 0.00 0.00 34 1011.6
20260508183022 67 326 2.6 7.0 0.00 0.00 0.00 34 1011.8
20260508181521 64 318 0.9 5.2 0.00 0.00 0.00 38 1012.1
20260508180020 65 59 0.9 6.1 0.00 0.00 0.00 38 1012.4
20260508174525 64 153 0.9 5.2 0.00 0.00 0.00 39 1012.7